Location: Slanting_Bridge
(35.6330°N, 80.9830°W)
Time: 06:59:34
(UTC-04:00)

Hamsat - Visible Passes

Search period start: 19 April 2015 00:00
Search period end: 29 April 2015 00:00
Orbit: 591 x 623 km, 97.6° (Epoch: 18 April)

Date Brightness Start Highest point End Pass type
(mag) Time Alt. Az. Time Alt. Az. Time Alt. Az.
22 Apr ? 05:45:20 10° ENE 05:47:28 14° E 05:49:48 10° SE visible
23 Apr ? 05:57:42 10° NE 06:00:47 20° E 06:03:57 10° SE visible
24 Apr ? 06:10:24 10° NE 06:14:02 28° E 06:17:42 10° SSE visible
